Location: Hilton Head Island
(32.2163°N, 80.7526°W)
Time: 21:34:49
(UTC-04:00)

Vanguard 2 Rocket - Pass Details

Date: 24 February 2026
Orbit: 553 x 3286 km, 32.9° (Epoch: 10 March)

Event Time Altitude Azimuth Distance (km) Brightness Sun altitude
Rises 08:09:44 0° 209° (SSW) 6,002 11.0 14.2°
Reaches altitude 10° 08:13:43 10° 202° (SSW) 5,319 10.9 15.0°
Maximum altitude 08:28:53 39° 140° (SE) 4,174 11.5 17.9°
Drops below altitude 10° 08:46:12 10° 80° (E) 6,100 12.1 21.2°
Sets 08:51:06 0° 74° (ENE) 6,940 12.1 22.2°
